Regional Weather Roundup
Issued by NWS

Home | Current Version | Previous Version | Graphics & Text | Print | Product List | Glossary On
Versions: 1 2 3 4 5 6 7 8 9 10 11 12 13 14 15 16 17 18 19 20 21 22 23 24 25 26 27 28 29 30 31 32 33 34 35 36 37 38 39 40 41 42 43 44 45 46 47 48 49 50
000
ASUS45 KTFX 222319
RWRMT
MONTANA HOURLY WEATHER ROUNDUP
NATIONAL WEATHER SERVICE GREAT FALLS MT
519 PM MDT FRI AUG 22 2014

NOTE: "FAIR" INDICATES FEW OR NO CLOUDS BELOW 12000 FEET WITH NO
SIGNIFICANT WEATHER AND/OR OBSTRUCTIONS TO VISIBILITY.

* THESE STATIONS ARE NOT UNDER NWS QUALITY CONTROL. THEY DO NOT
   REPORT WEATHER SUCH AS PRECIPITATION OR FOG.

MTZ001>007-043-230000-
WEST OF THE DIVIDE
CITY           SKY/WX    TMP DP  RH WIND       PRES   REMARKS
KALISPELL      CLOUDY    61  52  72 VRB5      30.09R
MISSOULA       CLOUDY    64  52  65 N17G24    30.03R
BUTTE          TSTM      61  45  56 E9        30.05F
MULLAN PASS    CLOUDY    54  46  74 CALM      30.11S
* ESSEX        N/A       57  43  60 E7G16      N/A
* LINCOLN      N/A       62  46  56 NE12G22    N/A
* LOOKOUT PASS N/A       58  46  65 NW7G16     N/A
* POLSON       N/A       58  48  70 VRB3       N/A
* RONAN APT    CLOUDY    57  52  83 N9         N/A
* SEELEY LAKE  N/A       60  49  67 NW4        N/A
* THOMP F APT  CLOUDY    53  47  80 SE4G15     N/A
$$

MTZ008-052>055-230000-
SOUTHWEST MONTANA
CITY           SKY/WX    TMP DP  RH WIND       PRES   REMARKS
BOZEMAN        CLOUDY    61  50  67 S16       30.05S
DILLON         CLOUDY    54  45  72 SE18      30.06R
W YELLOWSTONE  CLOUDY    55  46  72 NE3       30.10F
* THREE FORKS  CLOUDY    64  64 100 N/A        N/A
* BOULDER HILL N/A       55  47  75 N10G18     N/A
* MONIDA PASS  N/A       47  45  93 W14G19     N/A
* RAYNOLDS PAS N/A       47  -5  11 N14        N/A
* WHITEHALL    N/A       66  48  52 E4G11      N/A
* WISE RIVER   N/A       61  44  54 E11        N/A
$$

MTZ009>010-012-014-046-048-049-054-230000-
EAST SLOPES AND CENTRAL MONTANA
CITY           SKY/WX    TMP DP  RH WIND       PRES   REMARKS
CUT BANK       CLOUDY    52  46  80 N18       30.21R
GREAT FALLS    CLOUDY    57  52  83 N13       30.11F
HELENA         MOCLDY    66  46  49 N16       30.06S
MALMSTROM AFB  MOCLDY    59  52  78 N14       30.13S
* CONRAD       MOCLDY    57  54  90 N13        N/A
* DEARBORN     N/A       58  52  81 VRB9G18    N/A
* EAST GLACIER N/A       45  44  96 NE18       N/A
* MONARCH      N/A       50  46  86 N10        N/A
* PENDROY      N/A       50  49  96 NE14G19    N/A
* SAINT MARY   N/A       47  45  93 N6G15      N/A
* SWEET GRASS  N/A       48  48 100 NE24G32    N/A
* WHITE SULPH  N/A       60  48  65 N5G17      N/A
$$

MTZ011-013-016-021-035-040-045-047-050-051-230000-
NORTH CENTRAL MONTANA
CITY           SKY/WX    TMP DP  RH WIND       PRES   REMARKS
HAVRE          RAIN      59  57  93 E10       30.12R VSB 3
LEWISTOWN      LGT RAIN  57  55  93 NE8       30.09F
* FORT BENTON  MOCLDY    63  55  75 N6        30.10F
* CHESTER      N/A       56  54  93 NE7G12     N/A
* DENTON       N/A       59  56  90 NW12G17    N/A
* GEYSER       N/A       58  48  70 NE12       N/A
* JUDITH GAP   N/A       54  54 100 N12        N/A
* LOMA         N/A       62  55  78 VRB7       N/A
$$

MTZ017>020-022>027-061-062-230000-
NORTHEAST MONTANA
CITY           SKY/WX    TMP DP  RH WIND       PRES   REMARKS
GLASGOW        CLOUDY    66  54  65 E21       30.08F
GLENDIVE       MOCLDY    66  59  78 NE16      30.08S
JORDAN         MOCLDY    66  55  68 E17G26    30.06S
SIDNEY         CLOUDY    64  57  78 NE9       30.10S
WOLF POINT     CLOUDY    68  54  61 NE13      30.08S
* BEAVER HILL  N/A       67  58  73 NE16       N/A
* CIRCLE       N/A       64  60  87 NE5G13     N/A
* LINDSAY DVD  N/A       64  57  78 NE19       N/A
* SACO         N/A       64  55  73 NE18G23    N/A
$$

MTZ028>042-056>058-230000-
SOUTHCENTRAL AND SOUTHEAST MONTANA
CITY           SKY/WX    TMP DP  RH WIND       PRES   REMARKS
BAKER          RAIN      64  61  90 NE10      30.06S VSB 3
BILLINGS       CLOUDY    64  55  73 NE10      30.03F
LIVINGSTON     CLOUDY    61  52  72 NE8       30.06S
MILES CITY     CLOUDY    72  57  59 NE15      30.01S
* LAUREL APT   CLOUDY    64  55  73 N7         N/A
* ROUNDUP APT  CLOUDY    64  54  70 NE8        N/A
* ALZADA       N/A       72  60  66 E11        N/A
* HYSHAM       N/A       68  48  49 E10        N/A
* LAME DEER    N/A       62  56  81 N14        N/A
* REED POINT   N/A       64  52  65 N4         N/A
* ROSCOE HILL  N/A       55  50  83 W3         N/A
$$

REGIONAL REPORTS...DAKOTAS
CITY           SKY/WX    TMP DP  RH WIND       PRES   REMARKS
WILLISTON      CLOUDY    66  55  68 NE12      30.11S
DICKINSON      MOCLDY    68  61  78 NE10      30.06S
BEACH          N/A       64  63  97 E16       30.08S
CROSBY         CLOUDY    64  55  73 NE10G16   30.14F
TIOGA          CLOUDY    64  59  84 E13       30.15F
WATFORD CITY   CLOUDY    66  57  73 NE13      30.08F
BISMARCK       CLOUDY    70  64  81 E13       30.06R
GRAND FORKS    MOCLDY    73  64  74 N13       30.03S
FARGO          MOCLDY    73  66  79 N12       30.02S
BUFFALO SD     PTCLDY    70  61  73 E12       29.98F
RAPID CITY     MOCLDY    75  61  62 E9        30.02F
$$

REGIONAL REPORTS...WYOMING/IDAHO/WASHINGTON
CITY           SKY/WX    TMP DP  RH WIND       PRES   REMARKS
GILLETTE       CLOUDY    79  54  42 E14G24    29.95F
SHERIDAN       PTCLDY    72  55  55 NW7       30.00F
CODY           CLOUDY    64  52  65 N3        30.03S
YELLOWSTONE LA CLOUDY    50  41  71 CALM      30.19S
SALMON         CLOUDY    57  45  64 SW14      30.03R
MULLAN PASS    CLOUDY    54  46  74 CALM      30.11S
SAND POINT     MOCLDY    64  50  61 N18G24    30.05R
SPOKANE        PTCLDY    73  48  41 NE15      29.99S
$$

REGIONAL REPORTS...ALBERTA
CITY           SKY/WX    TMP DP  RH WIND       PRES   REMARKS
CALGARY        CLOUDY    52  46  80 E8        30.32R
LETHBRIDGE     LGT RAIN  50  48  93 NE12G29   30.27S
MEDICINE HAT   LGT RAIN  52  50  93 N8        30.24S
EDMONTON       MOCLDY    61  37  41 NE7       30.34S
WATERTON GATE  N/A       46  45  96 NE10       N/A
CARDSTON       N/A       46  46 100 E9         N/A
MILK RIVER     N/A       48  48 100 NE21G28    N/A
$$

REGIONAL REPORTS...SASKATCHEWAN
CITY           SKY/WX    TMP DP  RH WIND       PRES   REMARKS
SWIFT CURRENT  CLOUDY    61  52  72 NE15      30.19S
MOOSE JAW      CLOUDY    66  52  61 N9        30.19R
REGINA         MOCLDY    66  52  61 E13G20    30.19R
VAL MARIE      N/A       63  54  73 E15G22     N/A
ASSINIBOIA     N/A       64  48  56 NE17       N/A
CORONACH       N/A       63  54  73 NE12G17    N/A

$$



USA.gov is the U.S. government's official web portal to all federal, state and local government web resources and services.